Regional Weather Roundup
Issued by NWS

Home | Current Version | Previous Version | Text Only | Print | Product List | Glossary On
Versions: 1 2 3 4 5 6 7 8 9 10 11 12 13 14 15 16 17 18 19 20 21 22 23 24 25 26 27 28 29 30 31 32 33 34 35 36 37 38 39 40 41 42 43 44 45 46 47 48 49 50
000
ASCA44 KEWX 270920
RWRMX

LATIN AMERICA AND CARIBBEAN REGIONAL WEATHER ROUNDUP
NATIONAL WEATHER SERVICE AUSTIN/SAN ANTONIO TX
400 AM CDT SAT MAY 27 2017

NOTE: "FAIR" INDICATED FEW OR NO CLOUDS BELOW 12,000 FEET WITH NO
SIGNIFICANT WEATHER AND/OR OBSTRUCTIONS TO VISIBILITY.

BAJA CALIFORNIA

CITY           SKY/WX    TMP DP  RH WIND       PRES   REMARKS
MEXICALI         N/A    N/A N/A N/A MISG        N/A
S.J. DEL CABO    N/A    N/A N/A N/A MISG        N/A
TIJUANA        MOCLDY    61  52  72 CALM      30.05S

NORTHWESTERN MEXICO

CITY           SKY/WX    TMP DP  RH WIND       PRES   REMARKS
HERMOSILLO     CLEAR     75  55  50 W5        29.90F

NORTHEASTERN MEXICO

CITY           SKY/WX    TMP DP  RH WIND       PRES   REMARKS
MONCLOVA         N/A    N/A N/A N/A MISG        N/A
MONTERREY      CLEAR     79  73  83 NE7       29.84F
REYNOSA          N/A    N/A N/A N/A MISG        N/A
CD. VICTORIA     N/A    N/A N/A N/A MISG        N/A

WESTERN MEXICO

CITY           SKY/WX    TMP DP  RH WIND       PRES   REMARKS
AGUASCALIENTES   N/A    N/A N/A N/A MISG        N/A
COLIMA           N/A    N/A N/A N/A MISG        N/A
GUADALAJARA    PTCLDY    64  57  77 CALM      30.18F
MAZATLAN       CLEAR     66  64  94 NE3       29.94S
P. VALLARTA    PTCLDY    75  75 100 CALM      29.94F
URUAPAN          N/A    N/A N/A N/A MISG        N/A
ZACATECAS        N/A    N/A N/A N/A MISG        N/A

CENTRAL MEXICO

CITY           SKY/WX    TMP DP  RH WIND       PRES   REMARKS
CUERNAVACA       N/A    N/A N/A N/A MISG        N/A
MEXICO CITY    CLEAR     64  41  42 W6        30.31S
MORELIA        CLEAR     63  52  67 CALM      30.23S
POZA RICA        N/A    N/A N/A N/A MISG        N/A
S. LUIS POTOSI CLEAR     64  55  72 SE9       30.24F
TOLUCA         CLEAR     54  45  71 S6        30.39S

SOUTHERN MEXICO

CITY           SKY/WX    TMP DP  RH WIND       PRES   REMARKS
ACAPULCO       PTCLDY    82  77  83 CALM      29.90F HX  91
B. DE HUATULCO   N/A    N/A N/A N/A MISG        N/A
P. ESCONDIDO     N/A    N/A N/A N/A MISG        N/A
VERACRUZ         N/A    N/A N/A N/A MISG        N/A

YUCATAN PENINSULA

CITY           SKY/WX    TMP DP  RH WIND       PRES   REMARKS
CAMPECHE         N/A    N/A N/A N/A MISG        N/A
CANCUN         MOCLDY    81  77  89 E10       29.98S
CHETUMAL       LGT RAIN  81  79  94 E12       29.92
CD. DEL CARMEN   N/A    N/A N/A N/A MISG        N/A
COZUMEL        PTCLDY    81  77  89 SE7       29.95F
MERIDA         MOCLDY    81  75  83 SE9       29.93F
MINATITLAN       N/A    N/A N/A N/A MISG        N/A
TAPACHULA      PTCLDY    75  75 100 CALM      29.87

CENTRAL AMERICA

CITY           SKY/WX    TMP DP  RH WIND       PRES   REMARKS

CARIBBEAN

CITY           SKY/WX    TMP DP  RH WIND       PRES   REMARKS
ARUBA          PTCLDY    81  73  78 E17       29.89F
NASSAU         PTCLDY    82  77  83 CALM      30.03S HX  91
SAN JUAN       PTCLDY    79  73  83 CALM      30.03R
SANTO DOMINGO  PTCLDY    73  72  94 NE5       29.97S
ST. CROIX      CLEAR     77  73  88 NE6       30.03R
ST. MAARTEN    PTCLDY    81  73  78 E9        30.03R
ST. THOMAS     PTCLDY    81  73  78 E5        30.02R

$$




USA.gov is the U.S. government's official web portal to all federal, state and local government web resources and services.